Dewpoint
12 12 8 0 -8 -14 -14 -9 -4 -6 -9 -6 -4 -3 -3 -2 -2 -2 -2 -1 -0 1 2 3 3 1 -1 -3 -4 -5 -6 -7
11 8 4 -4 -11 -12 -8 -4 -5 -7 -8 -5 -4 -3 -3 -2 -2 -2 -2 -2 -0 2 3 4 3 3 -0 -2 -4 -6 -8 -10
9 6 1 -5 -8 -6 -5 -4 -5 -7 -6 -4 -4 -3 -3 -2 -2 -2 -2 -1 1 3 4 4 4 3 2 -1 -3 -7 -12 -15
6 3 1 2 0 -4 -4 -3 -6 -7 -5 -4 -3 -2 -2 -2 -2 -1 -2 -0 3 4 4 4 4 4 2 -1 -3 -10 -18 -16
6 5 4 4 -2 -5 -7 -4 -6 -4 -4 -2 -3 -3 -3 -2 -1 0 2 3 4 4 4 4 5 4 1 -1 -5 -15 -17 -16
6 6 4 2 -2 -6 -7 -3 -4 -2 2 5 3 3 3 4 4 4 4 4 4 5 5 5 5 4 -0 -2 -7 -19 -20 -19
6 6 3 0 -4 -6 1 -1 2 6 8 8 7 6 6 6 6 5 5 5 5 5 5 5 5 1 -1 -3 -13 -20 -20 -20
6 2 2 -1 -4 -4 1 1 8 8 8 9 7 7 8 7 7 6 6 6 5 5 5 5 3 0 -1 -6 -17 -18 -20 -20
2 2 2 1 -2 -1 1 5 9 9 9 9 8 7 7 8 8 7 7 6 5 5 5 4 1 -1 -2 -13 -16 -17 -16 -14
7 4 4 0 -1 1 3 8 8 8 8 8 7 6 6 8 9 8 7 6 6 6 5 1 -0 -0 -10 -15 -14 -13 -11 -12
7 7 5 -0 -1 2 4 4 8 9 8 7 7 5 6 9 8 7 7 7 6 5 2 0 -0 -7 -12 -12 -12 -11 -10 -11
8 7 1 -2 1 4 6 9 10 9 9 8 6 5 7 9 8 8 7 7 5 2 1 0 -5 -7 -8 -7 -10 -10 -10 -9
8 8 5 2 2 8 9 10 10 9 9 9 4 5 6 7 8 8 7 4 1 1 1 -3 -4 -5 -5 -4 -9 -11 -8 -7
6 7 7 6 7 8 9 9 9 9 10 7 5 6 6 7 7 7 4 1 2 1 -1 -2 -2 -2 -3 -4 -7 -10 -7 -7
7 6 8 7 6 7 8 9 9 8 9 6 5 6 7 7 6 4 2 3 2 -1 -1 -1 -1 -2 -3 -6 -8 -9 -7 -6
8 8 7 7 6 6 7 7 9 8 9 7 6 6 6 6 4 3 3 2 -0 -1 -0 -1 -3 -5 -9 -12 -12 -7 -4 -4
8 8 9 8 8 7 7 8 9 10 8 6 7 6 5 4 4 4 3 1 -0 -0 -1 -1 1 -6 -14 -18 -15 -10 -6 -3
9 8 8 8 7 7 7 7 8 9 8 8 7 6 5 4 4 3 3 1 0 0 -0 2 -5 -10 -13 -16 -11 -9 -8 -6
8 9 8 6 4 6 6 8 8 9 8 8 7 6 5 4 4 3 3 1 2 1 2 -2 -2 -2 -13 -10 -9 -9 -10 -7
8 8 7 7 5 6 7 9 10 9 9 9 6 5 4 4 4 4 3 4 3 2 2 -2 -12 -15 -12 -9 -9 -11 -13 -10
Wind_Speed
31 38 33 29 25 24 23 22 22 25 27 28 28 27 26 24 22 20 18 15 13 12 13 13 13 13 11 10 11 10 11 12
30 39 29 25 23 23 22 22 22 25 26 26 25 25 23 20 18 16 14 12 11 9 9 12 11 11 12 12 12 12 13 12
36 41 33 21 21 18 20 19 21 23 25 24 23 21 19 17 14 12 11 9 7 6 7 9 12 13 14 14 15 15 14 12
38 42 43 32 27 19 16 17 22 23 24 22 21 19 17 15 12 10 7 6 5 3 4 7 11 13 15 14 15 14 12 9
42 40 44 37 20 19 21 20 23 24 22 20 20 18 16 13 10 7 5 4 1 1 2 6 11 14 14 15 17 15 12 11
36 39 38 27 21 19 23 23 23 23 22 19 18 15 14 11 9 8 5 3 2 2 3 7 11 12 12 14 16 14 14 14
40 37 30 24 25 24 24 25 23 22 21 19 15 13 12 10 9 8 8 7 5 4 6 7 10 10 11 13 14 14 13 13
30 25 21 20 22 25 25 25 24 22 20 17 14 13 10 9 10 11 9 8 9 7 6 8 9 11 14 15 14 13 11 10
26 22 23 24 25 25 26 26 24 21 18 16 13 12 11 11 12 14 13 12 10 9 8 10 10 13 14 14 11 12 11 9
26 26 24 23 24 26 27 27 23 19 16 13 12 11 10 11 14 15 13 11 11 10 10 10 12 14 13 11 12 12 7 9
25 24 23 23 24 27 27 26 22 18 16 14 11 11 13 16 14 15 14 14 11 11 10 11 13 12 10 11 14 10 3 11
25 21 21 24 25 26 26 26 24 20 18 15 14 15 17 17 17 16 15 14 10 9 11 13 11 9 11 14 16 8 7 12
27 26 23 25 29 30 30 28 25 25 19 18 18 15 16 18 17 16 16 12 10 12 12 9 8 11 14 19 13 10 9 12
29 27 26 27 28 29 29 27 26 24 21 21 19 16 16 16 16 16 14 13 11 10 8 8 10 12 14 16 11 13 10 12
32 31 30 30 30 30 31 29 31 28 24 25 22 18 17 16 17 16 15 12 10 9 9 11 11 14 17 15 7 5 16 13
31 29 30 31 32 33 34 32 34 29 23 23 19 19 18 19 20 17 14 11 11 9 10 12 14 17 18 18 16 16 10 10
31 31 34 34 35 35 35 33 33 27 23 20 20 22 22 21 19 16 14 13 12 12 10 13 20 19 19 18 18 16 16 19
36 35 35 35 37 37 36 33 32 29 25 22 22 23 23 22 20 19 18 18 18 18 16 26 16 17 19 18 14 14 15 16
39 38 38 37 36 38 38 37 33 27 24 21 22 24 25 24 22 22 24 23 24 22 22 18 22 24 18 15 15 18 19 19
38 38 39 37 38 35 39 41 35 29 26 22 20 23 27 27 26 30 29 25 28 22 25 18 15 17 15 16 18 19 17 15
Wind_Direction
154 152 144 139 141 145 148 146 142 142 144 143 141 138 134 132 127 121 118 113 116 103 86 70 66 58 60 54 34 19 11 16
161 136 126 135 140 145 139 135 146 148 147 145 141 139 137 132 129 126 123 125 108 86 69 57 53 42 38 33 27 13 8 12
128 117 126 129 134 132 136 138 147 153 149 148 145 141 138 139 136 137 138 121 108 90 60 36 27 20 20 13 10 4 2 4
133 136 138 142 136 136 145 157 161 158 153 152 150 148 147 151 150 146 137 129 118 96 57 25 13 4 1 357 357 359 359 2
140 140 138 147 147 165 171 175 164 160 160 159 161 159 161 159 148 156 163 156 132 96 17 4 359 349 351 353 351 351 355 354
143 143 135 146 174 179 188 174 168 166 166 161 165 165 164 156 168 180 187 206 237 289 318 341 340 337 342 342 337 338 341 341
154 161 153 164 178 188 185 177 174 173 176 177 175 173 177 180 193 207 210 220 233 264 298 320 321 323 326 330 330 331 334 333
158 162 163 173 182 187 187 184 182 186 187 186 187 188 200 214 219 222 225 231 239 249 273 299 307 319 327 329 326 329 336 343
173 175 182 188 195 191 191 190 191 197 196 199 200 206 212 223 231 231 229 223 234 250 281 293 312 317 323 322 328 339 351 11
186 193 194 194 197 197 196 198 202 206 206 209 213 216 226 236 235 233 227 238 238 261 278 291 307 314 317 330 344 351 10 13
198 200 199 197 201 201 202 205 213 216 214 221 221 223 238 233 232 241 246 240 246 263 273 290 306 311 325 343 352 352 345 357
204 203 202 201 203 203 206 212 219 222 219 222 225 233 237 233 230 237 240 240 245 257 277 295 308 329 347 348 347 333 297 338
209 209 205 205 205 205 212 218 227 222 221 224 224 241 244 237 235 238 235 234 242 261 277 299 324 344 346 343 346 338 281 309
215 217 216 215 213 215 221 232 235 232 224 227 234 247 243 232 231 228 230 234 247 264 281 308 328 336 340 344 335 320 269 291
217 218 218 220 222 223 229 235 237 235 221 227 239 240 233 223 222 225 227 233 249 268 294 319 323 327 328 329 323 289 305 296
223 223 223 225 227 228 230 238 239 241 236 240 242 235 223 218 223 220 225 239 256 278 303 317 325 329 322 320 314 301 293 293
227 229 228 229 231 232 234 239 243 244 240 243 247 227 217 217 217 221 233 249 264 272 276 311 309 311 315 314 304 295 287 283
229 232 235 236 237 237 238 246 253 246 236 244 240 224 222 222 226 232 245 256 257 258 273 297 306 311 313 304 295 294 294 287
231 233 236 239 236 239 240 243 253 246 239 246 237 230 227 228 233 242 244 242 263 263 289 293 295 296 296 301 304 307 303 294
234 235 237 243 240 240 240 242 248 245 241 236 241 242 233 229 235 245 245 273 257 283 302 302 298 290 300 303 305 311 304 292
Height
1513 1505 1523 1529 1535 1541 1545 1551 1556 1558 1562 1564 1566 1567 1568 1570 1572 1574 1574 1574 1574 1575 1576 1577 1576 1577 1576 1575 1577 1577 1575 1573
1516 1516 1527 1531 1538 1542 1546 1548 1557 1560 1563 1567 1569 1570 1570 1573 1574 1575 1575 1576 1576 1577 1579 1577 1577 1578 1578 1577 1576 1577 1576 1572
1508 1505 1529 1539 1543 1546 1547 1550 1557 1561 1564 1569 1571 1572 1572 1573 1574 1575 1576 1577 1577 1578 1578 1578 1577 1577 1576 1577 1575 1576 1574 1572
1519 1526 1527 1536 1543 1548 1551 1553 1556 1562 1566 1570 1571 1573 1573 1573 1575 1576 1577 1577 1577 1579 1577 1579 1578 1578 1577 1577 1576 1576 1574 1572
1525 1527 1530 1538 1547 1552 1554 1555 1558 1563 1567 1569 1572 1572 1572 1574 1574 1577 1579 1578 1579 1578 1578 1578 1577 1578 1576 1576 1575 1574 1573 1570
1528 1531 1533 1539 1547 1552 1554 1556 1560 1563 1568 1570 1571 1572 1572 1573 1575 1576 1576 1578 1578 1578 1579 1577 1577 1578 1576 1575 1575 1574 1571 1570
1525 1530 1534 1539 1546 1551 1555 1557 1561 1563 1568 1570 1571 1569 1572 1573 1576 1577 1576 1577 1578 1577 1578 1576 1578 1578 1576 1574 1573 1572 1569 1569
1532 1535 1538 1543 1546 1550 1554 1557 1560 1564 1565 1568 1570 1569 1572 1573 1575 1576 1575 1576 1578 1577 1576 1577 1577 1576 1574 1573 1572 1569 1567 1568
1533 1536 1539 1543 1548 1550 1553 1557 1559 1562 1564 1565 1568 1569 1571 1573 1573 1574 1574 1575 1576 1576 1575 1577 1574 1574 1573 1572 1571 1567 1564 1563
1534 1537 1540 1543 1547 1550 1553 1556 1559 1560 1562 1564 1566 1567 1569 1570 1571 1573 1573 1574 1573 1575 1575 1576 1573 1573 1571 1570 1569 1565 1561 1561
1533 1535 1538 1541 1546 1549 1551 1554 1557 1558 1560 1562 1564 1566 1567 1569 1569 1572 1571 1573 1569 1572 1575 1573 1571 1570 1569 1567 1565 1562 1560 1559
1532 1534 1537 1541 1544 1546 1550 1552 1553 1556 1558 1560 1562 1564 1564 1564 1566 1568 1570 1571 1568 1570 1572 1572 1570 1568 1566 1564 1563 1561 1559 1558
1529 1532 1535 1538 1540 1542 1546 1548 1550 1553 1555 1558 1560 1561 1561 1561 1563 1565 1568 1568 1567 1569 1570 1569 1566 1563 1563 1562 1560 1559 1558 1557
1526 1529 1533 1535 1538 1540 1544 1546 1548 1550 1552 1554 1556 1557 1558 1559 1561 1564 1564 1565 1565 1567 1566 1565 1562 1561 1560 1557 1557 1557 1555 1555
1522 1525 1529 1532 1534 1537 1540 1542 1544 1545 1547 1551 1553 1553 1554 1556 1559 1559 1561 1562 1562 1563 1562 1561 1559 1559 1557 1557 1554 1552 1551 1551
1520 1524 1526 1529 1532 1534 1534 1537 1539 1541 1544 1549 1549 1549 1550 1554 1555 1556 1557 1558 1558 1558 1558 1559 1558 1556 1556 1555 1553 1553 1550 1547
1516 1519 1522 1525 1528 1530 1532 1533 1536 1539 1543 1544 1545 1547 1549 1550 1552 1552 1553 1553 1553 1553 1552 1554 1553 1554 1553 1551 1550 1549 1548 1546
1513 1515 1518 1521 1523 1526 1529 1531 1532 1535 1538 1540 1541 1543 1545 1547 1547 1547 1548 1548 1548 1548 1547 1548 1550 1549 1548 1547 1547 1545 1541 1539
1508 1512 1514 1517 1520 1523 1525 1527 1528 1530 1533 1535 1537 1538 1540 1542 1544 1544 1542 1541 1543 1545 1544 1545 1546 1545 1543 1543 1542 1540 1537 1535
1503 1507 1510 1513 1515 1518 1520 1522 1523 1526 1527 1530 1532 1534 1535 1535 1536 1539 1537 1538 1537 1540 1541 1541 1541 1540 1539 1538 1537 1535 1533 1531